GW0367 Weather Reports


time (UTC)temp
C
wind
direction
speed
KPH
gust
KPH
rain 1hr
cm
rain 24hr
cm
rain mn
cm
humidity
%
barometer
mb
20260503055019 10 250 3.2 9.7 0.00 0.15 0.15 79 1016.3
20260503054552 10 255 1.6 4.8 0.00 0.15 0.15 80 1016.3
20260503054019 10 244 0.0 4.8 0.00 0.15 0.15 80 1016.6
20260503053517 10 244 1.6 4.8 0.00 0.15 0.15 80 1016.6
20260503053037 10 244 0.0 4.8 0.00 0.15 0.15 80 1016.6
20260503052517 11 244 1.6 4.8 0.00 0.15 0.15 80 1016.7
20260503052021 11 76 1.6 4.8 0.00 0.15 0.15 80 1016.8
20260503051532 11 71 1.6 4.8 0.00 0.15 0.15 79 1016.8
20260503051017 11 71 0.0 3.2 0.00 0.15 0.15 78 1016.8
20260503050517 11 71 0.0 3.2 0.00 0.15 0.15 78 1016.8
20260503050039 11 0 0.0 6.4 0.00 0.15 0.15 78 1016.8
20260503045517 11 71 0.0 6.4 0.00 0.15 0.15 78 1016.7
20260503045020 11 78 1.6 6.4 0.00 0.15 0.15 76 1016.8
20260503044534 11 298 1.6 6.4 0.00 0.15 0.15 76 1016.8
20260503044018 11 296 3.2 6.4 0.00 0.15 0.15 76 1016.8
20260503043515 11 282 1.6 6.4 0.00 0.15 0.15 78 1016.8
20260503043033 11 286 1.6 6.4 0.00 0.15 0.15 77 1016.7
20260503042517 11 235 3.2 6.4 0.00 0.15 0.15 77 1016.9
20260503042017 11 202 3.2 4.8 0.00 0.15 0.15 75 1016.9
20260503041538 11 0 0.0 3.2 0.00 0.15 0.15 74 1016.6
20260503041016 11 304 0.0 12.9 0.00 0.15 0.15 73 1016.5
20260503040515 11 0 3.2 12.9 0.00 0.15 0.15 73 1016.6
20260503040032 11 296 6.4 12.9 0.00 0.15 0.15 73 1016.3
20260503035517 11 306 3.2 6.4 0.00 0.15 0.15 74 1016.4
20260503035017 11 309 3.2 6.4 0.00 0.15 0.15 73 1016.3
20260503034535 11 307 1.6 6.4 0.00 0.15 0.15 74 1016.5
20260503034016 12 0 0.0 0.0 0.00 0.15 0.15 73 1016.5
20260503033516 12 0 0.0 3.2 0.00 0.15 0.15 72 1016.6
20260503033037 12 0 0.0 3.2 0.00 0.15 0.15 71 1016.7
20260503032521 12 0 0.0 3.2 0.00 0.15 0.15 71 1016.6
20260503032017 12 0 0.0 8.0 0.00 0.15 0.15 69 1016.6
20260503031533 12 74 1.6 8.0 0.00 0.15 0.15 69 1016.7
20260503031018 12 61 3.2 9.7 0.00 0.15 0.15 69 1016.5
20260503030518 12 78 3.2 9.7 0.00 0.15 0.15 71 1016.5
20260503030041 12 0 0.0 1.6 0.00 0.15 0.15 71 1016.6
20260503025517 12 0 0.0 4.8 0.00 0.15 0.15 68 1016.2
20260503025017 12 0 0.0 6.4 0.00 0.15 0.15 67 1016.0
20260503024535 12 51 1.6 12.9 0.00 0.15 0.15 67 1015.9
20260503024019 12 0 3.2 14.5 0.00 0.15 0.15 66 1015.8
20260503023517 12 352 6.4 19.3 0.00 0.15 0.15 66 1015.6
20260503023035 12 346 6.4 19.3 0.00 0.15 0.15 67 1015.5
20260503022516 12 340 6.4 14.5 0.00 0.15 0.15 68 1015.5
20260503022019 12 333 4.8 12.9 0.00 0.15 0.15 69 1015.4
20260503021534 12 321 4.8 16.1 0.00 0.15 0.15 69 1015.4
20260503021019 12 334 6.4 16.1 0.00 0.15 0.15 69 1015.3
20260503020519 12 348 6.4 16.1 0.00 0.15 0.15 70 1015.3
20260503020036 12 352 9.7 16.1 0.00 0.15 0.15 69 1015.2
20260503015522 12 344 8.0 16.1 0.00 0.15 0.15 69 1015.3
20260503015022 12 323 8.0 16.1 0.00 0.15 0.15 69 1015.4
20260503014547 13 344 8.0 16.1 0.00 0.15 0.15 70 1015.3
20260503014019 13 329 6.4 12.9 0.00 0.15 0.15 70 1015.3
20260503013519 13 326 4.8 14.5 0.00 0.15 0.15 71 1015.2
20260503013038 13 323 6.4 14.5 0.00 0.15 0.15 71 1015.2
20260503012519 13 338 6.4 14.5 0.03 0.15 0.15 73 1015.3
20260503012019 13 314 6.4 14.5 0.15 0.15 0.15 74 1015.2
20260503011535 13 315 4.8 9.7 0.15 0.15 0.15 75 1015.2
20260503011019 13 308 3.2 6.4 0.15 0.15 0.15 76 1015.3
20260503010519 13 340 3.2 6.4 0.15 0.15 0.15 74 1015.4
20260503010036 13 15 1.6 3.2 0.15 0.15 0.15 76 1015.4
20260503005520 13 0 0.0 8.0 0.15 0.15 0.15 74 1015.4
20260503005020 13 0 1.6 12.9 0.15 0.15 0.15 71 1015.2
20260503004531 13 51 4.8 12.9 0.15 0.15 0.15 70 1015.2
20260503004022 13 98 0.0 4.8 0.15 0.15 0.15 75 1015.3
20260503003519 13 0 0.0 27.4 0.15 0.15 0.15 69 1015.3
20260503003039 13 0 6.4 27.4 0.15 0.15 0.15 64 1015.3
20260503002519 15 208 14.5 27.4 0.10 0.10 0.10 54 1015.3
20260503002019 17 175 9.7 27.4 0.00 0.00 0.00 40 1015.1
20260503001548 18 216 8.0 27.4 0.00 0.00 0.00 36 1014.5
20260503001020 18 140 3.2 9.7 0.00 0.00 0.00 32 1014.2
20260503000518 18 127 1.6 9.7 0.00 0.00 0.00 34 1014.2
20260503000035 18 94 3.2 9.7 0.00 0.00 0.00 33 1014.1
20260502235518 18 0 1.6 12.9 0.00 0.00 0.00 34 1013.9
20260502235019 18 144 1.6 16.1 0.00 0.00 0.00 35 1013.9
20260502234539 18 92 4.8 16.1 0.00 0.00 0.00 34 1014.0
20260502234024 18 89 4.8 19.3 0.00 0.00 0.00 33 1014.1
20260502233520 18 167 4.8 32.2 0.00 0.00 0.00 33 1014.0
20260502233045 19 159 8.0 32.2 0.00 0.00 0.00 32 1014.0
20260502232522 20 119 12.9 32.2 0.00 0.00 0.00 30 1013.9
20260502232019 20 140 4.8 11.3 0.00 0.00 0.00 31 1013.8
20260502231536 20 151 1.6 11.3 0.00 0.00 0.00 30 1013.8
20260502231020 20 165 4.8 11.3 0.00 0.00 0.00 30 1013.9
20260502230520 20 174 1.6 11.3 0.00 0.00 0.00 30 1013.9
20260502230036 21 175 4.8 11.3 0.00 0.00 0.00 29 1014.0
20260502225518 21 199 4.8 11.3 0.00 0.00 0.00 31 1014.0
20260502225022 20 0 1.6 8.0 0.00 0.00 0.00 29 1014.0
20260502224541 20 158 1.6 11.3 0.00 0.00 0.00 30 1014.1
20260502224019 20 227 3.2 12.9 0.00 0.00 0.00 31 1014.2
20260502223519 20 202 8.0 16.1 0.00 0.00 0.00 30 1014.3
20260502223031 20 224 6.4 17.7 0.00 0.00 0.00 30 1014.4
20260502222519 20 269 8.0 17.7 0.00 0.00 0.00 30 1014.4
20260502222019 20 219 9.7 17.7 0.00 0.00 0.00 30 1014.4
20260502221540 20 0 1.6 9.7 0.00 0.00 0.00 32 1014.4
20260502221020 20 173 3.2 9.7 0.00 0.00 0.00 30 1014.5
20260502220519 20 171 1.6 9.7 0.00 0.00 0.00 32 1014.6
20260502220035 20 169 4.8 9.7 0.00 0.00 0.00 31 1014.8
20260502215522 20 193 4.8 14.5 0.00 0.00 0.00 31 1015.0
20260502215019 20 174 4.8 14.5 0.00 0.00 0.00 32 1015.0
20260502214535 19 163 6.4 12.9 0.00 0.00 0.00 32 1015.0
20260502214020 19 225 6.4 12.9 0.00 0.00 0.00 31 1015.0
20260502213519 18 217 6.4 22.5 0.00 0.00 0.00 30 1015.1
20260502213031 18 207 9.7 49.9 0.00 0.00 0.00 30 1015.3
20260502212523 18 248 20.9 49.9 0.00 0.00 0.00 29 1015.4
20260502212019 19 246 16.1 35.4 0.00 0.00 0.00 29 1015.6
20260502211535 19 221 17.7 35.4 0.00 0.00 0.00 28 1015.5
20260502211022 19 215 6.4 41.8 0.00 0.00 0.00 31 1015.5
20260502210518 18 202 4.8 41.8 0.00 0.00 0.00 30 1015.4
20260502210035 20 112 16.1 40.2 0.00 0.00 0.00 29 1015.7
20260502205522 20 168 6.4 12.9 0.00 0.00 0.00 31 1015.6
20260502205019 20 228 4.8 12.9 0.00 0.00 0.00 31 1015.5
20260502204536 20 244 4.8 12.9 0.00 0.00 0.00 30 1015.5
20260502204019 20 194 4.8 12.9 0.00 0.00 0.00 30 1015.5
20260502203519 20 200 0.0 16.1 0.00 0.00 0.00 30 1015.5
20260502203034 20 184 6.4 16.1 0.00 0.00 0.00 29 1015.5
20260502202519 20 132 6.4 14.5 0.00 0.00 0.00 30 1015.5
20260502202019 20 217 4.8 14.5 0.00 0.00 0.00 30 1015.6
20260502201549 20 161 4.8 17.7 0.00 0.00 0.00 29 1015.7
20260502201019 20 171 4.8 19.3 0.00 0.00 0.00 29 1015.7
20260502200520 20 178 11.3 19.3 0.00 0.00 0.00 29 1015.7
20260502200032 20 145 6.4 19.3 0.00 0.00 0.00 29 1015.7
20260502195517 20 224 11.3 24.1 0.00 0.00 0.00 28 1015.7
20260502195017 20 200 11.3 24.1 0.00 0.00 0.00 27 1015.7
20260502194535 20 182 8.0 19.3 0.00 0.00 0.00 30 1015.8
20260502194018 20 222 6.4 22.5 0.00 0.00 0.00 28 1015.7
20260502193518 20 222 12.9 22.5 0.00 0.00 0.00 28 1015.8
20260502193036 20 223 6.4 17.7 0.00 0.00 0.00 28 1015.8
20260502192517 20 184 6.4 19.3 0.00 0.00 0.00 28 1015.7
20260502192018 20 142 4.8 19.3 0.00 0.00 0.00 28 1015.8
20260502191531 20 240 11.3 19.3 0.00 0.00 0.00 29 1015.8
20260502191017 21 238 8.0 20.9 0.00 0.00 0.00 28 1015.8
20260502190517 21 198 6.4 20.9 0.00 0.00 0.00 28 1015.8
20260502190037 21 203 9.7 20.9 0.00 0.00 0.00 29 1015.8
20260502185516 21 162 6.4 20.9 0.00 0.00 0.00 28 1015.9
20260502185017 21 169 6.4 24.1 0.00 0.00 0.00 29 1015.9
20260502184544 21 128 6.4 24.1 0.00 0.00 0.00 28 1015.9
20260502184017 21 189 8.0 16.1 0.00 0.00 0.00 28 1016.0
20260502183519 20 234 4.8 16.1 0.00 0.00 0.00 29 1016.0
20260502183052 21 115 6.4 16.1 0.00 0.00 0.00 30 1016.2
20260502182517 20 153 3.2 14.5 0.00 0.00 0.00 31 1016.2
20260502182017 20 0 1.6 9.7 0.00 0.00 0.00 32 1016.3
20260502181541 19 85 1.6 9.7 0.00 0.00 0.00 34 1016.3
20260502181015 19 63 1.6 11.3 0.00 0.00 0.00 36 1016.3
20260502180515 18 46 3.2 11.3 0.00 0.00 0.00 38 1016.5
20260502170517 16 0 0.0 4.8 0.00 0.00 0.00 39 1016.7
20260502164019 16 34 0.0 6.4 0.00 0.00 0.00 38 1016.6
20260502163519 15 59 1.6 8.0 0.00 0.00 0.00 39 1016.7
20260502163040 15 351 1.6 9.7 0.00 0.00 0.00 40 1016.7
20260502162519 15 342 4.8 9.7 0.00 0.00 0.00 40 1016.6
20260502162021 15 351 4.8 9.7 0.00 0.00 0.00 40 1016.6
20260502161535 15 14 1.6 6.4 0.00 0.00 0.00 43 1016.6
20260502161019 15 0 1.6 6.4 0.00 0.00 0.00 43 1016.5
20260502160522 15 17 1.6 4.8 0.00 0.00 0.00 42 1016.5
20260502152018 12 0 0.0 4.8 0.00 0.00 0.00 43 1016.7
20260502151537 12 0 0.0 4.8 0.00 0.00 0.00 44 1016.7
20260502151019 12 136 3.2 4.8 0.00 0.00 0.00 44 1016.7
20260502150520 12 0 0.0 3.2 0.00 0.00 0.00 47 1016.7
20260502130518 10 0 0.0 6.4 0.00 0.00 0.00 42 1015.9
20260502123517 11 239 3.2 12.9 0.00 0.00 0.00 40 1015.8
20260502123036 11 264 4.8 14.5 0.00 0.00 0.00 39 1015.8
20260502122518 11 233 4.8 14.5 0.00 0.00 0.00 38 1015.8
20260502122018 10 211 6.4 14.5 0.00 0.00 0.00 38 1015.8
20260502121545 11 258 3.2 12.9 0.00 0.00 0.00 39 1015.8
20260502121017 11 250 4.8 12.9 0.00 0.00 0.00 38 1015.8
20260502120518 11 244 3.2 11.3 0.00 0.00 0.00 38 1015.8
20260502115518 11 265 4.8 14.5 0.00 0.00 0.00 36 1015.7
20260502115017 11 257 6.4 14.5 0.00 0.00 0.00 36 1015.8
20260502114541 11 242 9.7 14.5 0.00 0.00 0.00 35 1015.8
20260502114018 11 254 4.8 12.9 0.00 0.00 0.00 35 1015.8
20260502113518 11 257 6.4 12.9 0.00 0.00 0.00 35 1015.8
20260502113036 11 273 3.2 12.9 0.00 0.00 0.00 34 1015.9
20260502112517 11 245 3.2 12.9 0.00 0.00 0.00 34 1015.9
20260502112018 11 248 4.8 9.7 0.00 0.00 0.00 35 1015.8
20260502111534 10 190 0.0 3.2 0.00 0.00 0.00 36 1015.8
20260502111019 10 0 0.0 4.8 0.00 0.00 0.00 37 1015.8
20260502110519 10 155 0.0 4.8 0.00 0.00 0.00 38 1015.9
20260502110036 10 0 0.0 6.4 0.00 0.00 0.00 38 1015.8
20260502105519 10 271 1.6 6.4 0.00 0.00 0.00 38 1015.8
20260502105018 10 253 3.2 6.4 0.00 0.00 0.00 37 1015.8
20260502104535 10 277 0.0 4.8 0.00 0.00 0.00 36 1015.8
20260502104029 10 292 1.6 6.4 0.00 0.00 0.00 36 1015.8
20260502103517 10 294 1.6 6.4 0.00 0.00 0.00 36 1015.8
20260502103036 10 0 3.2 6.4 0.00 0.00 0.00 36 1015.8
20260502102517 10 292 1.6 6.4 0.00 0.00 0.00 35 1015.8
20260502102015 10 292 3.2 6.4 0.00 0.00 0.00 35 1015.8
20260502101542 10 280 1.6 4.8 0.00 0.00 0.00 34 1015.8
20260502101017 11 11 0.0 3.2 0.00 0.00 0.00 33 1015.7
20260502100520 11 0 0.0 6.4 0.00 0.00 0.00 32 1015.7
20260502091532 11 254 4.8 12.9 0.00 0.00 0.00 29 1016.1
20260502091018 11 245 4.8 9.7 0.00 0.00 0.00 29 1016.2
20260502090518 12 224 1.6 9.7 0.00 0.00 0.00 28 1016.2
20260502071019 13 250 4.8 12.9 0.00 0.00 0.00 27 1017.0
20260502070521 13 273 3.2 12.9 0.00 0.00 0.00 27 1017.0